Georgetown, DE

10:04 AM EDT on August 25, 2016 (GMT -0400)
Sussex County

Weather History for KGED - May, 2013

Change the Weather History Date:

Saturday, May 4, 2013

  Actual Average Record
Temperature  
Mean Temperature 55 °F 59 °F  
Max Temperature 64 °F 70 °F 89 °F (2001)
Min Temperature 46 °F 49 °F 30 °F (1957)
Degree Days  
Heating Degree Days 10 7  
Month to date heating degree days 43 29  
Since 1 July heating degree days 4058 4289  
Cooling Degree Days 0 1  
Month to date cooling degree days 0 4  
Year to date cooling degree days 31 24  
Growing Degree Days 4 (Base 50)    
Moisture  
Dew Point 42 °F    
Average Humidity 66    
Maximum Humidity 86    
Minimum Humidity 46    
Precipitation  
Precipitation 0.00 in 0.10 in 1.60 in (1972)
Month to date precipitation 0.00 0.35  
Year to date precipitation 12.64 13.74  
Sea Level Pressure  
Sea Level Pressure 30.28 in    
Wind  
Wind Speed 10 mph (ENE)    
Max Wind Speed 20 mph    
Max Gust Speed 28 mph    
Visibility 10 miles    
Events      
T = Trace of Precipitation, MM = Missing Value Source: NWS Daily Summary

Daily Weather History Graph

Daily Weather History Graph

Search for Another Location

Airport or City:

Trip Planner

Search our weather history database for the weather conditions in past years. The results will help you decide how hot, cold, wet, or windy it might be!

Date:

Astronomy

May. 04, 2013 Rise Set
Actual Time 6:00 AM EDT 7:56 PM EDT
Civil Twilight 5:31 AM EDT 8:25 PM EDT
Nautical Twilight 4:56 AM EDT 9:01 PM EDT
Astronomical Twilight 4:18 AM EDT 9:39 PM EDT
Moon 2:53 AM EDT (5/4) 2:55 PM EDT (5/4)
Length of Visible Light 14h 54m
Length of Day
13h 56m
Waning Crescent, 27% of the Moon is Illuminated
May 4
Waning Crescent
May 9
New
May 18
First Quarter
May 25
Full
May 31
Last Quarter

Hourly Weather History & Observations

Time (EDT) Temp. Windchill Dew Point Humidity Pressure Visibility Wind Dir Wind Speed Gust Speed Precip Events Conditions
12:03 AM 48.2 °F - 44.6 °F 87% 30.34 in 9.0 mi ENE 8.1 mph - N/A   Overcast
12:49 AM 48.2 °F - 44.6 °F 87% 30.33 in 10.0 mi East 11.5 mph - N/A   Overcast
12:54 AM 48.9 °F - 44.1 °F 83% 30.33 in 10.0 mi East 8.1 mph - N/A   Overcast
1:54 AM 48.9 °F - 44.1 °F 83% 30.31 in 10.0 mi ENE 9.2 mph - N/A   Overcast
2:54 AM 48.9 °F - 44.1 °F 83% 30.29 in 10.0 mi East 6.9 mph - N/A   Overcast
3:21 AM 48.2 °F - 44.6 °F 87% 30.28 in 10.0 mi ENE 3.5 mph - N/A   Mostly Cloudy
3:28 AM 48.2 °F - 44.6 °F 87% 30.28 in 10.0 mi ENE 6.9 mph - N/A   Overcast
3:54 AM 48.0 °F - 43.0 °F 83% 30.28 in 10.0 mi NE 5.8 mph - N/A   Overcast
4:54 AM 48.0 °F - 43.0 °F 83% 30.28 in 10.0 mi ENE 5.8 mph - N/A   Overcast
5:54 AM 46.9 °F - 42.1 °F 83% 30.28 in 10.0 mi NE 4.6 mph - N/A   Mostly Cloudy
6:54 AM 48.9 °F - 43.0 °F 80% 30.30 in 10.0 mi NE 5.8 mph - N/A   Scattered Clouds
7:05 AM 48.2 °F - 42.8 °F 82% 30.29 in 10.0 mi ENE 5.8 mph - N/A   Mostly Cloudy
7:54 AM 52.0 °F - 43.0 °F 71% 30.29 in 10.0 mi ENE 12.7 mph - N/A   Mostly Cloudy
8:26 AM 53.6 °F - 42.8 °F 67% 30.29 in 10.0 mi East 15.0 mph 20.7 mph N/A   Scattered Clouds
8:54 AM 53.1 °F - 43.0 °F 69% 30.30 in 10.0 mi ENE 12.7 mph - N/A   Scattered Clouds
9:54 AM 57.0 °F - 43.0 °F 59% 30.29 in 10.0 mi ENE 11.5 mph 19.6 mph N/A   Clear
10:54 AM 59.0 °F - 45.0 °F 60% 30.29 in 10.0 mi East 10.4 mph - N/A   Clear
11:54 AM 60.1 °F - 43.0 °F 53% 30.28 in 10.0 mi ENE 15.0 mph 20.7 mph N/A   Clear
12:54 PM 61.0 °F - 43.0 °F 52% 30.27 in 10.0 mi East 12.7 mph - N/A   Clear
1:54 PM 63.0 °F - 41.0 °F 45% 30.26 in 10.0 mi East 15.0 mph 21.9 mph N/A   Clear
2:54 PM 62.1 °F - 42.1 °F 48% 30.25 in 10.0 mi ENE 15.0 mph 24.2 mph N/A   Clear
3:54 PM 60.1 °F - 42.1 °F 51% 30.25 in 10.0 mi ENE 16.1 mph 21.9 mph N/A   Clear
4:54 PM 57.9 °F - 41.0 °F 53% 30.25 in 10.0 mi East 15.0 mph 24.2 mph N/A   Clear
5:54 PM 55.9 °F - 39.0 °F 53% 30.24 in 10.0 mi East 12.7 mph 19.6 mph N/A   Clear
6:54 PM 54.0 °F - 37.9 °F 55% 30.24 in 10.0 mi East 9.2 mph 18.4 mph N/A   Clear
7:54 PM 51.1 °F - 39.9 °F 66% 30.23 in 10.0 mi East 9.2 mph - N/A   Clear
8:54 PM 48.0 °F - 39.9 °F 74% 30.24 in 10.0 mi ENE 5.8 mph - N/A   Clear
9:54 PM 46.9 °F - 39.9 °F 77% 30.25 in 10.0 mi ENE 6.9 mph - N/A   Clear
10:54 PM 46.0 °F 42.5 °F 39.0 °F 76% 30.25 in 10.0 mi ENE 6.9 mph - N/A   Clear
11:38 PM 46.4 °F 43.5 °F 39.2 °F 76% 30.25 in 10.0 mi ENE 5.8 mph - N/A   Mostly Cloudy
11:54 PM 46.9 °F - 41.0 °F 80% 30.25 in 10.0 mi ENE 6.9 mph - N/A   Mostly Cloudy